This is the latest recevied weather packets stored in our database for station/object W2BP-13. If no packets are shown the sender has not sent any weather packets the latest 10 day(s).
| Time | Temp. | Humidity | Pressure | Rain* | Wind** | Luminosity | Snow |
|---|---|---|---|---|---|---|---|
| 1778265633 | 22.78° C | 24% | 1019.6 hPa | 0 mm | - | - | - |
| 1778264732 | 23.33° C | 24% | 1019.8 hPa | 0 mm | - | - | - |
| 1778263833 | 22.78° C | 24% | 1019.6 hPa | 0 mm | - | - | - |
| 1778262933 | 21.67° C | 30% | 1019.8 hPa | 0 mm | - | - | - |
| 1778262033 | 20° C | 33% | 1020 hPa | 0 mm | - | - | - |
| 1778261132 | 19.44° C | 40% | 1019.9 hPa | 0 mm | - | - | - |
| 1778260232 | 18.33° C | 44% | 1019.8 hPa | 0 mm | - | - | - |
| 1778259332 | 18.89° C | 44% | 1019.8 hPa | 0 mm | - | - | - |
| 1778258433 | 19.44° C | 43% | 1019.7 hPa | 0 mm | - | - | - |
| 1778257533 | 19.44° C | 44% | 1019.7 hPa | 0 mm | - | - | - |
| 1778256633 | 17.78° C | 47% | 1019.7 hPa | 0 mm | - | - | - |
| 1778255733 | 17.78° C | 47% | 1019.4 hPa | 0 mm | - | - | - |
| 1778254833 | 17.78° C | 46% | 1019.3 hPa | 0 mm | - | - | - |
| 1778253933 | 17.78° C | 47% | 1019.4 hPa | 0 mm | - | - | - |
| 1778253032 | 17.22° C | 50% | 1019.1 hPa | 0 mm | - | - | - |
| 1778252132 | 16.67° C | 50% | 1018.9 hPa | 0 mm | - | - | - |
| 1778251233 | 15.56° C | 51% | 1019.2 hPa | 0 mm | - | - | - |
| 1778250333 | 14.44° C | 56% | 1019.1 hPa | 0 mm | - | - | - |
| 1778249433 | 13.89° C | 56% | 1019.2 hPa | 0 mm | - | - | - |
| 1778248533 | 13.89° C | 54% | 1018.9 hPa | 0 mm | - | - | - |
| 1778247633 | 13.33° C | 56% | 1018.7 hPa | 0 mm | - | - | - |
| 1778246733 | 11.67° C | 62% | 1018.9 hPa | 0 mm | - | - | - |
| 1778245833 | 11.11° C | 64% | 1018.7 hPa | 0 mm | - | - | - |
| 1778244933 | 11.11° C | 62% | 1018.3 hPa | 0 mm | - | - | - |
| 1778244032 | 11.11° C | 60% | 1018.4 hPa | 0 mm | - | - | - |
* Rain latest hour (hover to see other rain measurements)
** Current wind speed in m/s (hover to see current wind gust speed)